Location: Flotzheim
(48.8375°N, 10.8136°E)
Time: 04:21:19
(UTC+00:00)

Cosmos 1340 - Pass Details

Date: 23 January 2021
Orbit: 500 x 504 km, 81.2° (Epoch: 26 February)

Event Time Altitude Azimuth Distance (km) Brightness Sun altitude
Rises 18:06:07 0° 189° (S) 2,584 6.5 -20.4°
Reaches altitude 10° 18:08:14 10° 190° (S) 1,705 5.5 -20.8°
Maximum altitude 18:11:58 88° 97° (E) 509 2.5 -21.4°
Enters shadow 18:12:17 74° 18° (NNE) 527 2.5 -21.5°
